{"data":{"norad_id":56379,"intl_designator":"2023-061F","name":"STARLINK-6157","alt_names":[],"object_type":"PAYLOAD","status":"ACTIVE","operator":null,"country":"US","launch_date":"2023-05-04","launch_site_code":"AFETR","launch_vehicle":null,"mission":null,"orbit_class":"UNKNOWN","rcs_meters":null,"size_class":null,"mass_kg":null,"dimensions":null,"purposes":["comms"],"wikipedia_slug":null,"has_3d_model":false,"image_url":null,"decayed_at":null,"tle_current":{"epoch":"2026-05-25T00:14:30.973344Z","epoch_age_seconds":77457,"freshness":"FRESH","line1":"1 56379U 23061F   26145.01008071  .00000701  00000+0  34988-4 0  9990","line2":"2 56379  43.0043 126.7306 0001656 269.0743  90.9919 15.27577788169527","mean_motion":15.27577788,"eccentricity":0.0001656,"inclination_deg":43.0043,"raan_deg":126.7306,"arg_perigee_deg":269.0743,"mean_anomaly_deg":90.9919,"bstar":3.4988e-5,"rev_number":16952,"period_min":94.266885216061,"perigee_km":481.91950605705,"apogee_km":484.19193308577,"semimajor_km":6861.1927195714,"source":"CELESTRAK","updated_at":"2026-05-25T13:38:18.011192Z"}}}